Location: Cassagne
(43.1218°N, 0.9901°E)
Time: 14:37:23
(UTC+00:00)

STARLINK-1077 - Pass Details

Date: 17 February 2020
Orbit: 379 x 380 km, 53.0° (Epoch: 28 March)

Event Time Altitude Azimuth Distance (km) Brightness Sun altitude
Exits shadow 05:16:54 27° 194° (SSW) 776 4.2 -18.0°
Maximum altitude 05:18:12 44° 138° (SE) 542 3.9 -17.7°
Drops below altitude 10° 05:21:13 10° 65° (ENE) 1,412 6.7 -17.2°
Sets 05:23:20 0° 59° (ENE) 2,270 7.8 -16.8°
